Flag for Turkey Weather past 2 weeks in Izmir, Turkey

Now
46 °F

Partly cloudy.


Feels Like: 41 °F
Forecast: 47 / 58 °F
Wind: 10 mph from Southeast

Location: Izmir / Adnan Menderes

Current Time: Jan 27, 2015 at 8:53:46 PM

Latest Report: Jan 27, 2015 at 8:20 PM


Visibility: N/A

Pressure: 29.80 "Hg

Humidity: 93%

Dew point: 45 °F

Location of IzmirLocation

Historic Weather in Izmir — Graph

°F

Izmir temperature yesterday

Maximum temperature yesterday: 57 °F (at 12:50 PM)
Minimum temperature yesterday: 43 °F (at 10:20 PM)
Average temperature yesterday: 50 °F

Past Weeks' High & Low Weather Summary

 TemperatureHumidityPressure
High70 °F (Jan 23, 1:50 PM)100% (Jan 15, 12:20 AM)30.36 "Hg (Jan 15, 12:20 AM)
Low30 °F (Jan 17, 7:20 AM)33% (Jan 23, 2:50 PM)29.74 "Hg (Jan 24, 12:20 AM)
Average49 °F78%30.06 "Hg
* Reported Jan 12 7:20 PM — Jan 27 7:50 PM, Izmir, Weather by CustomWeather, © 2014

Note: Actual official high and low records may vary slightly from our data, if they occured in-between our weather recording intervals... More about our weather records

Advertising

Izmir weather history for previous 24 hours

 ConditionsComfort  
Time TempWeatherWind HumidityBarometerVisibility
7:50 PM
Jan 27
46 °FPartly cloudy.9 mph93%29.83 "HgN/A
7:20 PM46 °FPartly cloudy.9 mph93%29.83 "HgN/A
6:50 PM48 °FPartly cloudy.10 mph94%29.83 "HgN/A
6:20 PM48 °FSprinkles. Partly cloudy.9 mph94%29.80 "Hg4 mi
5:50 PM48 °FSprinkles. Partly cloudy.5 mph94%29.80 "Hg4 mi
5:20 PM48 °FSprinkles. Broken clouds.3 mph94%29.83 "Hg4 mi
4:50 PM48 °FSprinkles. Broken clouds.7 mph100%29.80 "Hg4 mi
4:20 PM48 °FSprinkles. Broken clouds.3 mph94%29.80 "Hg5 mi
3:50 PM48 °FSprinkles. Fog.7 mph100%29.80 "Hg3 mi
3:20 PM50 °FSprinkles. Fog.5 mph94%29.80 "Hg1 mi
2:50 PM50 °FSprinkles. Fog.2 mph94%29.80 "Hg3 mi
2:20 PM50 °FSprinkles. Fog.5 mph94%29.83 "Hg2 mi
1:50 PM50 °FSprinkles. Fog.5 mph94%29.83 "Hg2 mi
1:20 PM50 °FSprinkles. Broken clouds.7 mph94%29.86 "HgN/A
12:50 PM52 °FSprinkles. Broken clouds.2 mph94%29.86 "HgN/A
12:20 PM52 °FSprinkles. Broken clouds.3 mph88%29.89 "Hg5 mi
11:50 AM52 °FSprinkles. Broken clouds.2 mph94%29.92 "Hg5 mi
11:20 AM52 °FBroken clouds.1 mph88%29.92 "Hg5 mi
10:50 AM52 °FSprinkles. Broken clouds.3 mph94%29.92 "Hg5 mi
10:20 AM52 °FSprinkles. Broken clouds.2 mph88%29.95 "Hg5 mi
9:50 AM50 °FSprinkles. Broken clouds.3 mph94%29.98 "Hg5 mi
9:20 AM48 °FSprinkles. Broken clouds.2 mph100%29.98 "Hg5 mi
8:50 AM48 °FBroken clouds.1 mph100%29.98 "Hg5 mi
8:20 AM48 °FBroken clouds.2 mph100%29.98 "Hg5 mi
7:50 AM48 °FBroken clouds.No wind100%30.01 "Hg5 mi
7:20 AM48 °FSprinkles. Broken clouds.3 mph100%30.01 "Hg5 mi
6:50 AM46 °FPartly cloudy.2 mph100%30.01 "Hg4 mi
6:20 AM46 °FPartly cloudy.2 mph100%29.98 "Hg4 mi
5:50 AM45 °FPartly cloudy.No wind100%29.98 "Hg4 mi
5:20 AM46 °FFog.3 mph93%30.01 "Hg2 mi
4:50 AM45 °FPartly cloudy.5 mph100%30.01 "Hg4 mi
4:20 AM43 °FPartly cloudy.3 mph100%30.01 "Hg4 mi
3:50 AM46 °FSnow. Fog.2 mph93%30.01 "Hg4 mi
3:20 AM48 °FPartly cloudy.1 mph94%30.01 "Hg5 mi
2:50 AM50 °FPartly cloudy.6 mph94%30.04 "Hg5 mi
2:20 AM50 °FSprinkles. Partly cloudy.3 mph94%30.04 "Hg4 mi
1:50 AM48 °FSprinkles. Partly cloudy.3 mph100%30.04 "Hg4 mi
1:20 AM46 °FSprinkles. Partly cloudy.2 mph100%30.04 "Hg4 mi
12:50 AM45 °FFog.3 mph93%30.04 "Hg3 mi
12:20 AM43 °FSprinkles. Fog.2 mph100%30.04 "Hg2 mi
11:50 PM
Jan 26
45 °FFog.2 mph93%30.07 "Hg2 mi
11:20 PM46 °FFog.3 mph93%30.07 "Hg3 mi
10:50 PM45 °FFog.2 mph100%30.07 "Hg2 mi
10:20 PM43 °FLight fog.2 mph100%30.07 "Hg1 mi
9:50 PM45 °FLight fog.No wind100%30.07 "Hg1 mi
9:20 PM45 °FFog.1 mph100%30.07 "Hg1 mi
8:50 PM46 °FFog.1 mph100%30.07 "Hg2 mi
8:20 PM46 °FFog.3 mph100%30.07 "Hg2 mi
Weather by CustomWeather, © 2014

See weather overviewHow to use our weather pages